Location: Austin
(30.3000°N, 97.7500°W)
Time: 23:21:33
(UTC-05:00)

Tsikada Rocket - Pass Details

Date: 05 September 2024
Orbit: 957 x 1009 km, 82.9° (Epoch: 14 September)

Event Time Altitude Azimuth Distance (km) Brightness Sun altitude
Rises 20:54:43 0° 359° (N) 3,671 7.2 -14.9°
Reaches altitude 10° 20:57:17 10° 4° (N) 2,728 6.5 -15.4°
Maximum altitude 21:03:25 57° 82° (E) 1,143 4.1 -16.7°
Drops below altitude 10° 21:09:37 10° 161° (SSE) 2,750 6.0 -18.0°
Enters shadow 21:09:38 10° 161° (SSE) 2,755 6.0 -18.0°
